Location: Newark
(29.9790°N, 31.1340°E)
Time: 01:55:04
(UTC+00:00)

Vanguard 3 - Pass Details

Date: 18 January 2020
Orbit: 508 x 3263 km, 33.3° (Epoch: 21 February)

Event Time Altitude Azimuth Distance (km) Brightness Sun altitude
Rises 18:02:13 0° 254° (WSW) 7,196 13.0 -34.7°
Reaches altitude 10° 18:07:19 10° 255° (WSW) 6,051 12.3 -35.8°
Maximum altitude 18:25:41 86° 345° (NNW) 2,336 9.2 -39.8°
Enters shadow 18:26:47 79° 52° (NE) 2,291 9.0 -40.0°
